Location: Duffs
(47.4500°N, 53.1167°W)
Time: 04:32:40
(UTC+00:00)

ISS - Pass Details

Date: 27 May 2022
Orbit: 414 x 420 km, 51.6° (Epoch: 04 July)

Event Time Altitude Azimuth Distance (km) Brightness Sun altitude
Rises 01:03:44 0° 294° (WNW) 2,369 1.1 -13.9°
Reaches altitude 10° 01:05:51 10° 290° (WNW) 1,501 -0.1 -14.1°
Maximum altitude 01:09:11 61° 210° (SSW) 477 -3.7 -14.4°
Enters shadow 01:10:32 31° 141° (SE) 751 -3.1 -14.5°
